Regional Weather Roundup
Issued by NWS

Home | Current Version | Previous Version | Graphics & Text | Print | Product List | Glossary On
Versions: 1 2 3 4 5 6 7 8 9 10 11 12 13 14 15 16 17 18 19 20 21 22 23 24 25 26 27 28 29 30 31 32 33 34 35 36 37 38 39 40 41 42 43 44 45 46 47 48 49 50
000
ASUS45 KABQ 240910
RWRNM
WEATHER ROUNDUP FOR NEW MEXICO
NATIONAL WEATHER SERVICE ALBUQUERQUE NM
300 AM MDT THU JUL 24 2014

NOTE: "FAIR" MEANS FEW OR NO CLOUDS BELOW 12,000 FEET AGL WITH NO
       SIGNIFICANT WEATHER OR OBSTRUCTIONS TO VISION.

      THIS PRODUCT IS RELEASED AS TWO VERSIONS.  ONE VERSION NEAR
      THE TOP OF THE HOUR CONTAINING PRELIMINARY DATA FROM ALBUQUERQUE
      AND OTHER STATIONS.  A FINAL VERSION WITH ADDITIONAL DATA IS
      ISSUED ABOUT 10 MINUTES AFTER THE HOUR.

NMZ501-503-504-510>518-241000-
NORTHWEST PLATEAU/NORTHCENTRAL MOUNTAINS

CITY           SKY/WX    TMP DP  RH WIND       PRES   REMARKS
FARMINGTON     PTCLDY    74  50  42 E8        30.29F
LOS ALAMOS     CLEAR     65  47  52 SW5       30.46F
SANTA FE       CLEAR     67  50  54 SE5       30.39F
TAOS           CLEAR     52  43  71 CALM      30.46F
ANGEL FIRE     FAIR      42  40  89 CALM      30.56F

$$
NMZ402-403-502-505>509-241000-
WESTCENTRAL MOUNTAINS/SOUTHWEST MOUNTAINS

CITY           SKY/WX    TMP DP  RH WIND       PRES   REMARKS
GALLUP         PTCLDY    62  55  77 CALM      30.36F
GRANTS         CLEAR     60  51  71 CALM      30.40S
SILVER CITY    CLEAR     72  43  35 CALM      30.30F

$$
NMZ407-409-411-412-241000-
SOUTHERN DESERTS

CITY           SKY/WX    TMP DP  RH WIND       PRES   REMARKS
LORDSBURG      FAIR      70  43  37 S7        30.18F
DEMING         CLEAR     73  49  42 E10       30.18F
LAS CRUCES     CLEAR     71  42  35 E3        30.22F
HOLLOMAN AFB   PTCLDY    73  46  38 SE6       30.19F
ALAMOGORDO     PTCLDY    75  46  35 CALM      30.21F
T OR C         LGT RAIN  71  55  56 NW7       30.24F

$$
NMZ519>523-241000-
CENTRAL VALLEYS/CENTRAL HIGHLANDS

CITY           SKY/WX    TMP DP  RH WIND       PRES   REMARKS
ALBUQUERQUE    PTCLDY    76  48  37 CALM      30.31S
DOUBLE EAGLE   PTCLDY    68  51  55 E3        30.34F
MORIARTY ARPT  FAIR      57  50  77 SE3       30.40F
CLINES CORNERS CLEAR     62  47  57 S12       30.43F
BELEN          FAIR      68  49  50 S6        30.29F
SOCORRO        FAIR      70  48  45 S5        30.26F

$$
NMZ524>526-539-540-241000-
SOUTHCENTRAL MOUNTAINS

CITY           SKY/WX    TMP DP  RH WIND       PRES   REMARKS
RUIDOSO        CLEAR     66  45  45 MISG      30.45F

$$
NMZ527>531-241000-
NORTHEAST HIGHLANDS/NORTHEAST PLAINS

CITY           SKY/WX    TMP DP  RH WIND       PRES   REMARKS
LAS VEGAS      CLEAR     60  49  66 S7        30.44F
RATON          NOT AVBL
CLAYTON        CLEAR     71  54  54 W7        30.28F

$$
NMZ532>537-241000-
EASTCENTRAL PLAINS

CITY           SKY/WX    TMP DP  RH WIND       PRES   REMARKS
TUCUMCARI      CLEAR     74  57  55 SW8       30.21F
CANNON AFB     CLEAR     69  60  71 SE1       30.25F
CLOVIS AIRPORT CLEAR     66  57  72 SW5       30.27

$$
NMZ028-029-538-241000-
SOUTHEAST PLAINS

CITY           SKY/WX    TMP DP  RH WIND       PRES   REMARKS
ROSWELL        CLEAR     74  53  48 W3        30.19F
ARTESIA        CLEAR     73  52  46 W7        30.18F
CARLSBAD       CLEAR     77  51  40 CALM      30.15S
HOBBS          CLEAR     72  52  49 E5        30.21S


$$



USA.gov is the U.S. government's official web portal to all federal, state and local government web resources and services.